Location: Asheville, NC
(35.6000°N, 82.5500°W)
Time: 19:22:48
(UTC-05:00)

Vanguard 3 - Visible Passes

Search period start: 11 December 2017 00:00
Search period end: 21 December 2017 00:00
Orbit: 509 x 3263 km, 33.3° (Epoch: 10 December)

Date Brightness Start Highest point End Pass type
(mag) Time Alt. Az. Time Alt. Az. Time Alt. Az.
11 Dec 9.0 18:27:50 10° W 18:32:16 31° SSW 18:39:04 10° SE visible
11 Dec 10.5 20:42:02 10° SW 20:45:01 12° SSW 20:48:33 10° S visible
12 Dec 9.9 19:26:52 10° WSW 19:30:46 17° SSW 19:35:59 10° SSE visible
13 Dec 9.3 18:13:06 10° WSW 18:16:53 23° SSW 18:22:14 10° SSE visible
14 Dec 10.2 19:13:24 10° SW 19:15:20 11° SSW 19:17:33 10° S visible
15 Dec 9.6 17:58:36 10° WSW 18:01:32 17° SSW 18:05:14 10° SSE visible
17 Dec 9.9 17:44:54 10° SW 17:46:09 11° SSW 17:47:31 10° S visible
